This is the latest recevied weather packets stored in our database for station/object SP1BMW-13. If no packets are shown the sender has not sent any weather packets the latest 10 day(s).
| Time | Temp. | Humidity | Pressure | Rain* | Wind** | Luminosity | Snow |
|---|---|---|---|---|---|---|---|
| 1787940438 | 21.11° C | 75% | 1007.6 hPa | 0 mm | 0.89 m/s, 36° | 1 W/m² | - |
| 1787940378 | 21.11° C | 76% | 1007.7 hPa | 0 mm | 0.89 m/s, 20° | 1 W/m² | - |
| 1787940317 | 21.11° C | 75% | 1007.5 hPa | 0 mm | 0 m/s | 1 W/m² | - |
| 1787940257 | 21.11° C | 75% | 1007.6 hPa | 0 mm | 0 m/s | 1 W/m² | - |
| 1787940198 | 21.11° C | 75% | 1007.4 hPa | 0 mm | 0.89 m/s, 128° | 2 W/m² | - |
| 1787940138 | 21.11° C | 75% | 1007.5 hPa | 0 mm | 0.89 m/s, 17° | 2 W/m² | - |
| 1787940078 | 21.11° C | 75% | 1007.6 hPa | 0 mm | 0.45 m/s, 43° | 2 W/m² | - |
| 1787940019 | 21.11° C | 75% | 1007.5 hPa | 0 mm | 0.45 m/s, 97° | 2 W/m² | - |
| 1787939957 | 21.11° C | 75% | 1007.2 hPa | 0 mm | 0.89 m/s, 41° | 2 W/m² | - |
| 1787939897 | 21.11° C | 75% | 1007.4 hPa | 0 mm | 1.34 m/s, 57° | 2 W/m² | - |
| 1787939838 | 21.11° C | 75% | 1007.4 hPa | 0 mm | 0.45 m/s, 132° | 2 W/m² | - |
| 1787939777 | 21.11° C | 75% | 1007.2 hPa | 0 mm | 0 m/s | 2 W/m² | - |
| 1787939718 | 21.11° C | 75% | 1007.3 hPa | 0 mm | 0 m/s | 3 W/m² | - |
| 1787939657 | 21.11° C | 75% | 1007.3 hPa | 0 mm | 1.34 m/s, 48° | 3 W/m² | - |
| 1787939598 | 21.11° C | 75% | 1007.3 hPa | 0 mm | 0.89 m/s, 18° | 3 W/m² | - |
| 1787939538 | 21.11° C | 75% | 1007.3 hPa | 0 mm | 0.45 m/s, 45° | 4 W/m² | - |
| 1787939478 | 21.11° C | 75% | 1007.2 hPa | 0 mm | 0.89 m/s, 13° | 4 W/m² | - |
| 1787939417 | 21.11° C | 75% | 1007.3 hPa | 0 mm | 0 m/s | 4 W/m² | - |
| 1787939358 | 21.11° C | 75% | 1007.3 hPa | 0 mm | 1.34 m/s, 61° | 5 W/m² | - |
| 1787939297 | 21.11° C | 75% | 1007.2 hPa | 0 mm | 0.45 m/s, 44° | 5 W/m² | - |
| 1787939238 | 21.11° C | 75% | 1007.6 hPa | 0 mm | 1.34 m/s, 35° | 5 W/m² | - |
| 1787939178 | 21.11° C | 75% | 1007.4 hPa | 0 mm | 0.45 m/s, 119° | 6 W/m² | - |
| 1787939118 | 21.11° C | 75% | 1007.6 hPa | 0 mm | 0.45 m/s, 155° | 6 W/m² | - |
| 1787938998 | 21.11° C | 75% | 1007.5 hPa | 0 mm | 0.89 m/s, 37° | 6 W/m² | - |
| 1787938938 | 21.11° C | 75% | 1007.5 hPa | 0 mm | 0.89 m/s, 43° | 6 W/m² | - |
* Rain latest hour (hover to see other rain measurements)
** Current wind speed in m/s (hover to see current wind gust speed)